contact:dominique.lefevre@mio.osupytheas.fr, maurice.libes@osupytheas.fr, didier.mallarino@osupytheas.fr
Project:EMSO http://www.emso-fr.org/EMSO-France
Depth: 2436.0 m
Title:EMSO Ligure Ouest : Data MII capteur OXYGEN
DateTime,Latitude,Longitude,Optode-Type,Optode_Serial,Oxygen,Saturation_Oxygen,Temperature
DateTime,Latitude,Longitude,Optode-Type,Optode_Serial,µmol.l-1,%,degC
2019-06-10T00:01:12,42.805,6.029,4330,1995,195.177,59.689,13.289
2019-06-10T00:04:12,42.805,6.029,4330,1995,195.141,59.678,13.289
2019-06-10T00:07:12,42.805,6.029,4330,1995,195.195,59.695,13.289
2019-06-10T00:10:12,42.805,6.029,4330,1995,195.145,59.678,13.288
2019-06-10T00:13:12,42.805,6.029,4330,1995,195.209,59.699,13.289
2019-06-10T00:16:12,42.805,6.029,4330,1995,195.206,59.699,13.290
2019-06-10T00:19:12,42.805,6.029,4330,1995,195.184,59.692,13.290
2019-06-10T00:22:12,42.805,6.029,4330,1995,195.201,59.697,13.289
2019-06-10T00:25:12,42.805,6.029,4330,1995,195.163,59.687,13.290
2019-06-10T00:28:12,42.805,6.029,4330,1995,195.157,59.684,13.290
2019-06-10T00:31:12,42.805,6.029,4330,1995,195.188,59.692,13.289
2019-06-10T00:34:12,42.805,6.029,4330,1995,195.189,59.693,13.289
2019-06-10T00:37:12,42.805,6.029,4330,1995,195.178,59.690,13.289
2019-06-10T00:40:12,42.805,6.029,4330,1995,195.200,59.696,13.289
2019-06-10T00:43:12,42.805,6.029,4330,1995,195.188,59.694,13.290
2019-06-10T00:46:12,42.805,6.029,4330,1995,195.153,59.683,13.290
2019-06-10T00:49:12,42.805,6.029,4330,1995,195.129,59.674,13.289
2019-06-10T00:52:12,42.805,6.029,4330,1995,195.104,59.667,13.289
2019-06-10T00:55:12,42.805,6.029,4330,1995,195.115,59.671,13.290
2019-06-10T00:58:12,42.805,6.029,4330,1995,195.106,59.669,13.290
2019-06-10T01:01:12,42.805,6.029,4330,1995,195.073,59.660,13.291
2019-06-10T01:04:12,42.805,6.029,4330,1995,195.125,59.676,13.291
2019-06-10T01:07:12,42.805,6.029,4330,1995,195.121,59.672,13.289
2019-06-10T01:10:12,42.805,6.029,4330,1995,195.188,59.694,13.290
2019-06-10T01:13:12,42.805,6.029,4330,1995,195.120,59.673,13.290
2019-06-10T01:16:12,42.805,6.029,4330,1995,195.069,59.656,13.289
2019-06-10T01:19:12,42.805,6.029,4330,1995,195.064,59.655,13.289
2019-06-10T01:22:12,42.805,6.029,4330,1995,195.134,59.675,13.289
2019-06-10T01:25:12,42.805,6.029,4330,1995,195.113,59.670,13.289
2019-06-10T01:28:12,42.805,6.029,4330,1995,195.064,59.654,13.289
2019-06-10T01:31:12,42.805,6.029,4330,1995,195.088,59.662,13.289
2019-06-10T01:34:12,42.805,6.029,4330,1995,195.044,59.649,13.289
2019-06-10T01:37:12,42.805,6.029,4330,1995,195.079,59.658,13.288
2019-06-10T01:40:12,42.805,6.029,4330,1995,195.086,59.661,13.289
2019-06-10T01:43:12,42.805,6.029,4330,1995,195.092,59.663,13.289
2019-06-10T01:46:12,42.805,6.029,4330,1995,194.986,59.631,13.289
2019-06-10T01:49:12,42.805,6.029,4330,1995,195.056,59.651,13.288
2019-06-10T01:52:12,42.805,6.029,4330,1995,195.049,59.649,13.289
2019-06-10T01:55:12,42.805,6.029,4330,1995,195.029,59.644,13.289
2019-06-10T01:58:12,42.805,6.029,4330,1995,195.010,59.637,13.288
2019-06-10T02:01:12,42.805,6.029,4330,1995,195.037,59.647,13.289
2019-06-10T02:04:12,42.805,6.029,4330,1995,195.070,59.655,13.288
2019-06-10T02:07:12,42.805,6.029,4330,1995,195.031,59.644,13.288
2019-06-10T02:10:12,42.805,6.029,4330,1995,195.036,59.646,13.289
2019-06-10T02:13:12,42.805,6.029,4330,1995,195.025,59.642,13.288
2019-06-10T02:16:12,42.805,6.029,4330,1995,195.081,59.659,13.289
2019-06-10T02:19:12,42.805,6.029,4330,1995,194.997,59.634,13.289
2019-06-10T02:22:12,42.805,6.029,4330,1995,195.001,59.634,13.288
2019-06-10T02:25:12,42.805,6.029,4330,1995,195.002,59.635,13.288
2019-06-10T02:28:12,42.805,6.029,4330,1995,195.005,59.636,13.288
2019-06-10T02:31:12,42.805,6.029,4330,1995,194.991,59.632,13.289
2019-06-10T02:34:12,42.805,6.029,4330,1995,195.047,59.650,13.289
2019-06-10T02:37:12,42.805,6.029,4330,1995,195.005,59.637,13.289
2019-06-10T02:40:12,42.805,6.029,4330,1995,195.100,59.665,13.289
2019-06-10T02:43:12,42.805,6.029,4330,1995,195.073,59.658,13.290
2019-06-10T02:46:12,42.805,6.029,4330,1995,195.019,59.641,13.289
2019-06-10T02:49:12,42.805,6.029,4330,1995,195.078,59.659,13.289
2019-06-10T02:52:12,42.805,6.029,4330,1995,195.032,59.646,13.290
2019-06-10T02:55:12,42.805,6.029,4330,1995,195.090,59.663,13.290
2019-06-10T02:58:12,42.805,6.029,4330,1995,195.167,59.688,13.290
2019-06-10T03:01:12,42.805,6.029,4330,1995,195.129,59.677,13.291
2019-06-10T03:04:12,42.805,6.029,4330,1995,195.070,59.658,13.290
2019-06-10T03:07:12,42.805,6.029,4330,1995,195.079,59.662,13.291
2019-06-10T03:10:12,42.805,6.029,4330,1995,195.061,59.656,13.290
2019-06-10T03:13:12,42.805,6.029,4330,1995,195.005,59.638,13.290
2019-06-10T03:16:12,42.805,6.029,4330,1995,194.992,59.636,13.291
2019-06-10T03:19:12,42.805,6.029,4330,1995,194.932,59.615,13.290
2019-06-10T03:22:12,42.805,6.029,4330,1995,195.032,59.646,13.290
2019-06-10T03:25:12,42.805,6.029,4330,1995,195.097,59.665,13.289
2019-06-10T03:28:12,42.805,6.029,4330,1995,195.036,59.648,13.290
2019-06-10T03:31:12,42.805,6.029,4330,1995,195.011,59.639,13.289
2019-06-10T03:34:12,42.805,6.029,4330,1995,195.003,59.636,13.289
2019-06-10T03:37:12,42.805,6.029,4330,1995,194.939,59.617,13.289
2019-06-10T03:40:12,42.805,6.029,4330,1995,194.891,59.601,13.289
2019-06-10T03:43:12,42.805,6.029,4330,1995,194.901,59.604,13.288
2019-06-10T03:46:12,42.805,6.029,4330,1995,194.938,59.616,13.288
2019-06-10T03:49:12,42.805,6.029,4330,1995,194.946,59.618,13.289
2019-06-10T03:52:12,42.805,6.029,4330,1995,194.946,59.618,13.289
2019-06-10T03:55:12,42.805,6.029,4330,1995,194.961,59.623,13.289
2019-06-10T03:58:12,42.805,6.029,4330,1995,194.904,59.606,13.289
2019-06-10T04:01:12,42.805,6.029,4330,1995,194.979,59.628,13.289
2019-06-10T04:04:12,42.805,6.029,4330,1995,195.011,59.638,13.289
2019-06-10T04:07:12,42.805,6.029,4330,1995,194.994,59.633,13.289
2019-06-10T04:10:12,42.805,6.029,4330,1995,195.003,59.635,13.288
2019-06-10T04:13:12,42.805,6.029,4330,1995,195.030,59.645,13.290
2019-06-10T04:16:12,42.805,6.029,4330,1995,194.996,59.634,13.289
2019-06-10T04:19:12,42.805,6.029,4330,1995,195.004,59.639,13.291
2019-06-10T04:22:12,42.805,6.029,4330,1995,195.060,59.654,13.289
2019-06-10T04:25:12,42.805,6.029,4330,1995,195.052,59.651,13.289
2019-06-10T04:28:12,42.805,6.029,4330,1995,195.052,59.652,13.290
2019-06-10T04:31:12,42.805,6.029,4330,1995,194.940,59.617,13.289
2019-06-10T04:34:12,42.805,6.029,4330,1995,195.019,59.641,13.289
2019-06-10T04:37:12,42.805,6.029,4330,1995,194.948,59.620,13.290
2019-06-10T04:40:12,42.805,6.029,4330,1995,194.851,59.592,13.291
2019-06-10T04:43:12,42.805,6.029,4330,1995,194.907,59.610,13.291
2019-06-10T04:46:12,42.805,6.029,4330,1995,194.918,59.612,13.291
2019-06-10T04:49:12,42.805,6.029,4330,1995,194.906,59.609,13.291
2019-06-10T04:52:12,42.805,6.029,4330,1995,194.939,59.618,13.290
2019-06-10T04:55:12,42.805,6.029,4330,1995,194.902,59.608,13.291
2019-06-10T04:58:12,42.805,6.029,4330,1995,194.846,59.589,13.290
2019-06-10T05:01:12,42.805,6.029,4330,1995,194.844,59.589,13.290
2019-06-10T05:04:12,42.805,6.029,4330,1995,194.876,59.599,13.291
2019-06-10T05:07:12,42.805,6.029,4330,1995,194.851,59.592,13.291
2019-06-10T05:10:12,42.805,6.029,4330,1995,194.802,59.577,13.291
2019-06-10T05:13:12,42.805,6.029,4330,1995,194.848,59.591,13.291
2019-06-10T05:16:12,42.805,6.029,4330,1995,194.921,59.613,13.291
2019-06-10T05:19:12,42.805,6.029,4330,1995,194.932,59.618,13.292
2019-06-10T05:22:12,42.805,6.029,4330,1995,194.808,59.579,13.291
2019-06-10T05:25:12,42.805,6.029,4330,1995,194.793,59.578,13.293
2019-06-10T05:28:12,42.805,6.029,4330,1995,194.852,59.592,13.291
2019-06-10T05:31:12,42.805,6.029,4330,1995,194.859,59.594,13.291
2019-06-10T05:34:12,42.805,6.029,4330,1995,194.829,59.586,13.291
2019-06-10T05:37:12,42.805,6.029,4330,1995,194.822,59.582,13.290
2019-06-10T05:40:12,42.805,6.029,4330,1995,194.814,59.580,13.291
2019-06-10T05:43:12,42.805,6.029,4330,1995,194.765,59.565,13.291
2019-06-10T05:46:12,42.805,6.029,4330,1995,194.809,59.578,13.290
2019-06-10T05:49:12,42.805,6.029,4330,1995,194.759,59.562,13.290
2019-06-10T05:52:12,42.805,6.029,4330,1995,194.812,59.579,13.290
2019-06-10T05:55:12,42.805,6.029,4330,1995,194.795,59.574,13.290
2019-06-10T05:58:12,42.805,6.029,4330,1995,194.842,59.588,13.290
2019-06-10T06:01:12,42.805,6.029,4330,1995,194.750,59.561,13.290
2019-06-10T06:04:12,42.805,6.029,4330,1995,194.742,59.556,13.289
2019-06-10T06:07:12,42.805,6.029,4330,1995,194.754,59.560,13.289
2019-06-10T06:10:12,42.805,6.029,4330,1995,194.657,59.531,13.290
2019-06-10T06:13:12,42.805,6.029,4330,1995,194.724,59.550,13.289
2019-06-10T06:16:12,42.805,6.029,4330,1995,194.611,59.517,13.289
2019-06-10T06:19:12,42.805,6.029,4330,1995,194.660,59.531,13.289
2019-06-10T06:22:12,42.805,6.029,4330,1995,194.692,59.541,13.289
2019-06-10T06:25:12,42.805,6.029,4330,1995,194.687,59.539,13.289
2019-06-10T06:28:12,42.805,6.029,4330,1995,194.696,59.543,13.289
2019-06-10T06:31:12,42.805,6.029,4330,1995,194.750,59.560,13.290
2019-06-10T06:34:12,42.805,6.029,4330,1995,194.740,59.557,13.290
2019-06-10T06:37:12,42.805,6.029,4330,1995,194.773,59.566,13.289
2019-06-10T06:40:12,42.805,6.029,4330,1995,194.769,59.567,13.291
2019-06-10T06:43:12,42.805,6.029,4330,1995,194.720,59.550,13.290
2019-06-10T06:46:12,42.805,6.029,4330,1995,194.795,59.574,13.290
2019-06-10T06:49:12,42.805,6.029,4330,1995,194.798,59.573,13.289
2019-06-10T06:52:12,42.805,6.029,4330,1995,194.842,59.589,13.290
2019-06-10T06:55:12,42.805,6.029,4330,1995,194.827,59.583,13.290
2019-06-10T06:58:12,42.805,6.029,4330,1995,194.795,59.573,13.289
2019-06-10T07:01:12,42.805,6.029,4330,1995,194.814,59.580,13.290
2019-06-10T07:04:12,42.805,6.029,4330,1995,194.884,59.601,13.290
2019-06-10T07:07:12,42.805,6.029,4330,1995,194.902,59.606,13.290
2019-06-10T07:10:12,42.805,6.029,4330,1995,194.840,59.589,13.291
2019-06-10T07:13:12,42.805,6.029,4330,1995,194.828,59.585,13.291
2019-06-10T07:16:12,42.805,6.029,4330,1995,194.883,59.602,13.291
2019-06-10T07:19:12,42.805,6.029,4330,1995,194.870,59.597,13.290
2019-06-10T07:22:12,42.805,6.029,4330,1995,194.843,59.589,13.291
2019-06-10T07:25:12,42.805,6.029,4330,1995,194.811,59.582,13.293
2019-06-10T07:28:12,42.805,6.029,4330,1995,194.857,59.594,13.291
2019-06-10T07:31:12,42.805,6.029,4330,1995,194.832,59.586,13.291
2019-06-10T07:34:12,42.805,6.029,4330,1995,194.857,59.594,13.291
2019-06-10T07:37:12,42.805,6.029,4330,1995,194.842,59.588,13.290
2019-06-10T07:40:12,42.805,6.029,4330,1995,194.818,59.582,13.291
2019-06-10T07:43:12,42.805,6.029,4330,1995,194.703,59.548,13.292
2019-06-10T07:46:12,42.805,6.029,4330,1995,194.790,59.573,13.291
2019-06-10T07:49:12,42.805,6.029,4330,1995,194.838,59.586,13.290
2019-06-10T07:52:12,42.805,6.029,4330,1995,194.880,59.600,13.290
2019-06-10T07:55:12,42.805,6.029,4330,1995,194.870,59.598,13.291
2019-06-10T07:58:12,42.805,6.029,4330,1995,194.842,59.589,13.291
2019-06-10T08:01:12,42.805,6.029,4330,1995,194.795,59.575,13.291
2019-06-10T08:04:12,42.805,6.029,4330,1995,194.806,59.577,13.290
2019-06-10T08:07:12,42.805,6.029,4330,1995,194.821,59.580,13.289
2019-06-10T08:10:12,42.805,6.029,4330,1995,194.811,59.577,13.289
2019-06-10T08:13:12,42.805,6.029,4330,1995,194.841,59.587,13.290
2019-06-10T08:16:12,42.805,6.029,4330,1995,194.837,59.585,13.289
2019-06-10T08:19:12,42.805,6.029,4330,1995,194.775,59.566,13.289
2019-06-10T08:22:12,42.805,6.029,4330,1995,194.781,59.569,13.290
2019-06-10T08:25:12,42.805,6.029,4330,1995,194.772,59.566,13.290
2019-06-10T08:28:12,42.805,6.029,4330,1995,194.774,59.567,13.290
2019-06-10T08:31:12,42.805,6.029,4330,1995,194.741,59.556,13.289
2019-06-10T08:34:12,42.805,6.029,4330,1995,194.725,59.550,13.289
2019-06-10T08:37:12,42.805,6.029,4330,1995,194.747,59.557,13.289
2019-06-10T08:40:12,42.805,6.029,4330,1995,194.747,59.558,13.289
2019-06-10T08:43:12,42.805,6.029,4330,1995,194.785,59.569,13.289
2019-06-10T08:46:12,42.805,6.029,4330,1995,194.739,59.556,13.289
2019-06-10T08:49:12,42.805,6.029,4330,1995,194.856,59.590,13.289
2019-06-10T08:52:12,42.805,6.029,4330,1995,194.869,59.595,13.289
2019-06-10T08:55:12,42.805,6.029,4330,1995,194.827,59.584,13.290
2019-06-10T08:58:12,42.805,6.029,4330,1995,194.818,59.580,13.289
2019-06-10T09:01:12,42.805,6.029,4330,1995,194.841,59.588,13.290
2019-06-10T09:04:12,42.805,6.029,4330,1995,194.794,59.572,13.289
2019-06-10T09:07:12,42.805,6.029,4330,1995,194.796,59.573,13.289
2019-06-10T09:10:12,42.805,6.029,4330,1995,194.819,59.581,13.290
2019-06-10T09:13:12,42.805,6.029,4330,1995,194.784,59.571,13.291
2019-06-10T09:16:12,42.805,6.029,4330,1995,194.815,59.579,13.290
2019-06-10T09:19:12,42.805,6.029,4330,1995,194.845,59.589,13.290
2019-06-10T09:22:12,42.805,6.029,4330,1995,194.861,59.594,13.290
2019-06-10T09:25:12,42.805,6.029,4330,1995,194.826,59.583,13.290
2019-06-10T09:28:12,42.805,6.029,4330,1995,194.884,59.602,13.291
2019-06-10T09:31:12,42.805,6.029,4330,1995,194.851,59.591,13.290
2019-06-10T09:34:12,42.805,6.029,4330,1995,194.844,59.589,13.290
2019-06-10T09:37:12,42.805,6.029,4330,1995,194.885,59.602,13.290
2019-06-10T09:40:12,42.805,6.029,4330,1995,194.878,59.600,13.291
2019-06-10T09:43:12,42.805,6.029,4330,1995,194.919,59.611,13.290
2019-06-10T09:46:12,42.805,6.029,4330,1995,194.901,59.607,13.290
2019-06-10T09:49:12,42.805,6.029,4330,1995,194.968,59.627,13.290
2019-06-10T09:52:12,42.805,6.029,4330,1995,195.017,59.642,13.290
2019-06-10T09:55:12,42.805,6.029,4330,1995,195.005,59.639,13.291
2019-06-10T09:58:12,42.805,6.029,4330,1995,195.001,59.637,13.290
2019-06-10T10:01:12,42.805,6.029,4330,1995,195.001,59.636,13.290
2019-06-10T10:04:12,42.805,6.029,4330,1995,194.926,59.616,13.292
2019-06-10T10:07:12,42.805,6.029,4330,1995,194.961,59.625,13.290
2019-06-10T10:10:12,42.805,6.029,4330,1995,194.969,59.627,13.290
2019-06-10T10:13:12,42.805,6.029,4330,1995,194.998,59.637,13.291
2019-06-10T10:16:12,42.805,6.029,4330,1995,195.006,59.638,13.290
2019-06-10T10:19:12,42.805,6.029,4330,1995,194.994,59.633,13.289
2019-06-10T10:22:12,42.805,6.029,4330,1995,195.016,59.640,13.289
2019-06-10T10:25:12,42.805,6.029,4330,1995,194.993,59.635,13.291
2019-06-10T10:28:12,42.805,6.029,4330,1995,194.994,59.634,13.290
2019-06-10T10:31:12,42.805,6.029,4330,1995,194.979,59.629,13.289
2019-06-10T10:34:12,42.805,6.029,4330,1995,195.023,59.642,13.289
2019-06-10T10:37:12,42.805,6.029,4330,1995,195.031,59.645,13.289
2019-06-10T10:40:12,42.805,6.029,4330,1995,194.973,59.627,13.289
2019-06-10T10:43:12,42.805,6.029,4330,1995,194.959,59.623,13.289
2019-06-10T10:46:12,42.805,6.029,4330,1995,195.038,59.646,13.288
2019-06-10T10:49:12,42.805,6.029,4330,1995,195.019,59.641,13.289
2019-06-10T10:52:12,42.805,6.029,4330,1995,194.983,59.630,13.289
2019-06-10T10:55:12,42.805,6.029,4330,1995,195.014,59.640,13.289
2019-06-10T10:58:12,42.805,6.029,4330,1995,195.027,59.644,13.289
2019-06-10T11:01:12,42.805,6.029,4330,1995,194.933,59.615,13.289
2019-06-10T11:04:12,42.805,6.029,4330,1995,194.963,59.624,13.289
2019-06-10T11:07:12,42.805,6.029,4330,1995,194.967,59.624,13.289
2019-06-10T11:10:12,42.805,6.029,4330,1995,194.945,59.618,13.289
2019-06-10T11:13:12,42.805,6.029,4330,1995,194.898,59.604,13.289
2019-06-10T11:16:12,42.805,6.029,4330,1995,194.944,59.619,13.290
2019-06-10T11:19:12,42.805,6.029,4330,1995,194.969,59.625,13.289
2019-06-10T11:22:12,42.805,6.029,4330,1995,194.993,59.633,13.289
2019-06-10T11:25:12,42.805,6.029,4330,1995,194.931,59.614,13.289
2019-06-10T11:28:12,42.805,6.029,4330,1995,194.994,59.635,13.290
2019-06-10T11:31:12,42.805,6.029,4330,1995,195.003,59.637,13.290
2019-06-10T11:34:12,42.805,6.029,4330,1995,195.016,59.641,13.290
2019-06-10T11:37:12,42.805,6.029,4330,1995,194.929,59.615,13.290
2019-06-10T11:40:12,42.805,6.029,4330,1995,194.994,59.635,13.290
2019-06-10T11:43:12,42.805,6.029,4330,1995,194.958,59.624,13.291
2019-06-10T11:46:12,42.805,6.029,4330,1995,194.924,59.613,13.290
2019-06-10T11:49:12,42.805,6.029,4330,1995,194.960,59.626,13.292
2019-06-10T11:52:12,42.805,6.029,4330,1995,194.937,59.617,13.290
2019-06-10T11:55:12,42.805,6.029,4330,1995,194.971,59.628,13.291
2019-06-10T11:58:12,42.805,6.029,4330,1995,194.951,59.622,13.290
2019-06-10T12:01:12,42.805,6.029,4330,1995,195.019,59.641,13.289
2019-06-10T12:04:11,42.805,6.029,4330,1995,194.965,59.626,13.290
2019-06-10T12:07:12,42.805,6.029,4330,1995,194.979,59.630,13.290
2019-06-10T12:10:12,42.805,6.029,4330,1995,194.972,59.628,13.290
2019-06-10T12:13:12,42.805,6.029,4330,1995,194.958,59.623,13.290
2019-06-10T12:16:12,42.805,6.029,4330,1995,194.949,59.622,13.291
2019-06-10T12:19:11,42.805,6.029,4330,1995,194.948,59.623,13.292
2019-06-10T12:22:12,42.805,6.029,4330,1995,194.961,59.625,13.290
2019-06-10T12:25:11,42.805,6.029,4330,1995,194.946,59.620,13.290
2019-06-10T12:28:12,42.805,6.029,4330,1995,194.985,59.630,13.289
2019-06-10T12:31:11,42.805,6.029,4330,1995,194.965,59.625,13.289
2019-06-10T12:34:11,42.805,6.029,4330,1995,195.001,59.636,13.289
2019-06-10T12:37:11,42.805,6.029,4330,1995,194.954,59.620,13.289
2019-06-10T12:40:11,42.805,6.029,4330,1995,194.947,59.619,13.289
2019-06-10T12:43:11,42.805,6.029,4330,1995,194.951,59.620,13.289
2019-06-10T12:46:11,42.805,6.029,4330,1995,194.945,59.618,13.289
2019-06-10T12:49:11,42.805,6.029,4330,1995,194.921,59.612,13.290
2019-06-10T12:52:11,42.805,6.029,4330,1995,194.972,59.626,13.288
2019-06-10T12:55:11,42.805,6.029,4330,1995,194.958,59.621,13.288
2019-06-10T12:58:11,42.805,6.029,4330,1995,194.954,59.620,13.289
2019-06-10T13:01:11,42.805,6.029,4330,1995,194.930,59.613,13.289
2019-06-10T13:04:11,42.805,6.029,4330,1995,194.933,59.614,13.289
2019-06-10T13:07:11,42.805,6.029,4330,1995,194.960,59.622,13.288
2019-06-10T13:10:11,42.805,6.029,4330,1995,194.985,59.630,13.289
2019-06-10T13:13:11,42.805,6.029,4330,1995,194.984,59.630,13.289
2019-06-10T13:16:11,42.805,6.029,4330,1995,194.997,59.634,13.288
2019-06-10T13:19:11,42.805,6.029,4330,1995,194.946,59.618,13.289
2019-06-10T13:22:11,42.805,6.029,4330,1995,195.008,59.638,13.289
2019-06-10T13:25:11,42.805,6.029,4330,1995,194.915,59.608,13.289
2019-06-10T13:28:11,42.805,6.029,4330,1995,195.027,59.643,13.289
2019-06-10T13:31:11,42.805,6.029,4330,1995,194.997,59.634,13.289
2019-06-10T13:34:11,42.805,6.029,4330,1995,194.998,59.634,13.288
2019-06-10T13:37:11,42.805,6.029,4330,1995,195.047,59.649,13.288
2019-06-10T13:40:11,42.805,6.029,4330,1995,195.015,59.639,13.289
2019-06-10T13:43:11,42.805,6.029,4330,1995,195.012,59.638,13.289
2019-06-10T13:46:11,42.805,6.029,4330,1995,195.023,59.642,13.289
2019-06-10T13:49:11,42.805,6.029,4330,1995,195.036,59.646,13.289
2019-06-10T13:52:11,42.805,6.029,4330,1995,195.047,59.650,13.289
2019-06-10T13:55:11,42.805,6.029,4330,1995,195.127,59.675,13.290
2019-06-10T13:58:11,42.805,6.029,4330,1995,195.095,59.664,13.289
2019-06-10T14:01:11,42.805,6.029,4330,1995,195.080,59.659,13.289
2019-06-10T14:04:11,42.805,6.029,4330,1995,195.084,59.662,13.290
2019-06-10T14:07:11,42.805,6.029,4330,1995,195.121,59.672,13.289
2019-06-10T14:10:11,42.805,6.029,4330,1995,195.137,59.677,13.289
2019-06-10T14:13:11,42.805,6.029,4330,1995,195.102,59.667,13.290
2019-06-10T14:16:11,42.805,6.029,4330,1995,195.158,59.684,13.289
2019-06-10T14:19:11,42.805,6.029,4330,1995,195.094,59.664,13.289
2019-06-10T14:22:11,42.805,6.029,4330,1995,195.103,59.667,13.290
2019-06-10T14:25:11,42.805,6.029,4330,1995,195.129,59.676,13.290
2019-06-10T14:28:11,42.805,6.029,4330,1995,195.115,59.671,13.289
2019-06-10T14:31:11,42.805,6.029,4330,1995,195.135,59.677,13.289
2019-06-10T14:34:11,42.805,6.029,4330,1995,195.131,59.676,13.290
2019-06-10T14:37:11,42.805,6.029,4330,1995,195.098,59.668,13.291
2019-06-10T14:40:11,42.805,6.029,4330,1995,195.152,59.682,13.289
2019-06-10T14:43:11,42.805,6.029,4330,1995,195.144,59.680,13.290
2019-06-10T14:46:11,42.805,6.029,4330,1995,195.114,59.670,13.289
2019-06-10T14:49:11,42.805,6.029,4330,1995,195.194,59.694,13.289
2019-06-10T14:52:11,42.805,6.029,4330,1995,195.175,59.689,13.290
2019-06-10T14:55:11,42.805,6.029,4330,1995,195.187,59.693,13.289
2019-06-10T14:58:11,42.805,6.029,4330,1995,195.148,59.680,13.289
2019-06-10T15:01:11,42.805,6.029,4330,1995,195.109,59.667,13.288
2019-06-10T15:04:11,42.805,6.029,4330,1995,195.207,59.698,13.289
2019-06-10T15:07:11,42.805,6.029,4330,1995,195.186,59.691,13.288
2019-06-10T15:10:11,42.805,6.029,4330,1995,195.156,59.683,13.289
2019-06-10T15:13:11,42.805,6.029,4330,1995,195.222,59.702,13.288
2019-06-10T15:16:11,42.805,6.029,4330,1995,195.220,59.701,13.288
2019-06-10T15:19:11,42.805,6.029,4330,1995,195.187,59.691,13.288
2019-06-10T15:22:11,42.805,6.029,4330,1995,195.172,59.686,13.288
2019-06-10T15:25:11,42.805,6.029,4330,1995,195.188,59.691,13.288
2019-06-10T15:28:11,42.805,6.029,4330,1995,195.179,59.688,13.288
2019-06-10T15:31:11,42.805,6.029,4330,1995,195.224,59.703,13.288
2019-06-10T15:34:11,42.805,6.029,4330,1995,195.277,59.719,13.288
2019-06-10T15:37:11,42.805,6.029,4330,1995,195.192,59.692,13.288
2019-06-10T15:40:11,42.805,6.029,4330,1995,195.215,59.701,13.289
2019-06-10T15:43:11,42.805,6.029,4330,1995,195.188,59.692,13.289
2019-06-10T15:46:11,42.805,6.029,4330,1995,195.223,59.702,13.288
2019-06-10T15:49:11,42.805,6.029,4330,1995,195.210,59.698,13.288
2019-06-10T15:52:11,42.805,6.029,4330,1995,195.117,59.670,13.289
2019-06-10T15:55:11,42.805,6.029,4330,1995,195.153,59.681,13.288
2019-06-10T15:58:11,42.805,6.029,4330,1995,195.166,59.685,13.289
2019-06-10T16:01:11,42.805,6.029,4330,1995,195.170,59.687,13.289
2019-06-10T16:04:11,42.805,6.029,4330,1995,195.144,59.679,13.289
2019-06-10T16:07:11,42.805,6.029,4330,1995,195.208,59.699,13.290
2019-06-10T16:10:11,42.805,6.029,4330,1995,195.197,59.695,13.289
2019-06-10T16:13:11,42.805,6.029,4330,1995,195.222,59.703,13.289
2019-06-10T16:16:11,42.805,6.029,4330,1995,195.214,59.701,13.289
2019-06-10T16:19:11,42.805,6.029,4330,1995,195.175,59.690,13.290
2019-06-10T16:22:11,42.805,6.029,4330,1995,195.197,59.695,13.289
2019-06-10T16:25:11,42.805,6.029,4330,1995,195.148,59.680,13.289
2019-06-10T16:28:11,42.805,6.029,4330,1995,195.156,59.683,13.290
2019-06-10T16:31:11,42.805,6.029,4330,1995,195.163,59.685,13.289
2019-06-10T16:34:11,42.805,6.029,4330,1995,195.203,59.697,13.289
2019-06-10T16:37:11,42.805,6.029,4330,1995,195.229,59.705,13.289
2019-06-10T16:40:11,42.805,6.029,4330,1995,195.167,59.687,13.290
2019-06-10T16:43:11,42.805,6.029,4330,1995,195.220,59.702,13.289
2019-06-10T16:46:11,42.805,6.029,4330,1995,195.166,59.689,13.291
2019-06-10T16:49:11,42.805,6.029,4330,1995,195.120,59.673,13.290
2019-06-10T16:52:11,42.805,6.029,4330,1995,195.158,59.684,13.290
2019-06-10T16:55:11,42.805,6.029,4330,1995,195.169,59.687,13.289
2019-06-10T16:58:11,42.805,6.029,4330,1995,195.103,59.668,13.290
2019-06-10T17:01:11,42.805,6.029,4330,1995,195.069,59.658,13.290
2019-06-10T17:04:11,42.805,6.029,4330,1995,195.139,59.679,13.290
2019-06-10T17:07:11,42.805,6.029,4330,1995,195.175,59.689,13.289
2019-06-10T17:10:11,42.805,6.029,4330,1995,195.124,59.673,13.289
2019-06-10T17:13:11,42.805,6.029,4330,1995,195.095,59.665,13.290
2019-06-10T17:16:11,42.805,6.029,4330,1995,195.157,59.682,13.289
2019-06-10T17:19:11,42.805,6.029,4330,1995,195.185,59.691,13.289
2019-06-10T17:22:11,42.805,6.029,4330,1995,195.118,59.671,13.289
2019-06-10T17:25:11,42.805,6.029,4330,1995,195.166,59.685,13.289
2019-06-10T17:28:11,42.805,6.029,4330,1995,195.114,59.669,13.288
2019-06-10T17:31:11,42.805,6.029,4330,1995,195.161,59.683,13.288
2019-06-10T17:34:11,42.805,6.029,4330,1995,195.109,59.668,13.289
2019-06-10T17:37:11,42.805,6.029,4330,1995,195.104,59.666,13.289
2019-06-10T17:40:11,42.805,6.029,4330,1995,195.077,59.657,13.288
2019-06-10T17:43:11,42.805,6.029,4330,1995,195.171,59.686,13.288
2019-06-10T17:46:11,42.805,6.029,4330,1995,195.124,59.672,13.289
2019-06-10T17:49:11,42.805,6.029,4330,1995,195.080,59.659,13.289
2019-06-10T17:52:11,42.805,6.029,4330,1995,195.057,59.653,13.289
2019-06-10T17:55:11,42.805,6.029,4330,1995,195.017,59.641,13.290
2019-06-10T17:58:11,42.805,6.029,4330,1995,195.063,59.655,13.290
2019-06-10T18:01:11,42.805,6.029,4330,1995,195.078,59.660,13.290
2019-06-10T18:04:11,42.805,6.029,4330,1995,195.051,59.650,13.288
2019-06-10T18:07:11,42.805,6.029,4330,1995,195.022,59.643,13.290